EW6289 Weather Reports


Display with metric or nautical units.
time (UTC)temp
F
wind
direction
speed
MPH
gust
MPH
rain 1hr
in
rain 24hr
in
rain mn
in
humidity
%
barometer
mb
20260504021531 0 250 0.0 0.0 0.00 0.00 0.00 1010.8
20260504020027 0 250 0.0 0.0 0.00 0.00 0.00 1010.8
20260504014526 0 250 0.0 0.0 0.00 0.00 0.00 1010.9
20260504013019 0 250 0.0 0.0 0.00 0.00 0.00 1010.7
20260504011511 0 250 0.0 0.0 0.00 0.00 0.00 1010.6
20260504010007 0 250 0.0 0.0 0.00 0.00 0.00 1010.6
20260504004503 0 234 0.0 0.0 0.00 0.00 0.00 1010.6
20260504003107 0 103 0.0 0.0 0.00 0.00 0.00 1010.4
20260504001605 0 232 0.0 0.0 0.00 0.00 0.00 1010.5
20260504000101 0 278 0.0 0.0 0.00 0.00 0.00 1010.5
20260503234543 0 247 0.0 0.0 0.00 0.00 0.00 1010.5
20260503233042 0 246 0.0 0.0 0.00 0.00 0.00 1010.5
20260503231532 0 227 0.0 0.0 0.00 0.00 0.00 1010.5
20260503230028 0 294 0.0 0.0 0.00 0.00 0.00 1010.5
20260503224524 0 303 0.0 0.0 0.00 0.00 0.00 1010.6
20260503223019 0 221 0.0 3.0 0.00 0.00 0.00 1010.6
20260503221514 0 209 0.0 0.0 0.00 0.00 0.00 1010.6
20260503220041 0 239 0.0 1.0 0.00 0.00 0.00 1010.5
20260503214536 0 287 0.0 1.0 0.00 0.00 0.00 1010.6
20260503213002 0 242 0.0 2.0 0.00 0.00 0.00 1010.4
20260503211558 0 311 0.0 1.0 0.00 0.00 0.00 1010.5
20260503210051 0 288 0.0 1.0 0.00 0.00 0.00 1010.7
20260503204547 0 288 0.0 2.0 0.00 0.00 0.00 1010.7
20260503203044 0 297 0.0 2.0 0.00 0.00 0.00 1010.9
20260503201539 0 262 0.0 0.0 0.00 0.00 0.00 1011.0
20260503200008 0 227 0.0 1.0 0.00 0.00 0.00 1011.2
20260503194502 0 265 0.0 2.0 0.00 0.00 0.00 1011.5
20260503193107 0 265 0.0 0.0 0.00 0.00 0.00 1011.7
20260503191549 0 265 0.0 2.0 0.00 0.00 0.00 1012.0
20260503190046 0 227 0.0 0.0 0.00 0.00 0.00 1012.1
20260503184540 0 244 0.0 1.0 0.00 0.00 0.00 1012.2
20260503183043 0 304 0.0 0.0 0.00 0.01 0.00 1012.4
20260503181529 0 274 0.0 4.0 0.00 0.01 0.00 1012.8
20260503180027 0 274 0.0 1.0 0.00 0.01 0.00 1012.8
20260503174528 0 203 0.0 0.0 0.00 0.01 0.00 1013.0
20260503173054 0 280 0.0 0.0 0.00 0.01 0.00 1013.2
20260503171542 0 284 0.0 0.0 0.00 0.01 0.00 1013.2
20260503090115 0 360 0.0 0.0 0.00 0.01 0.00 1013.4
20260503081548 0 360 0.0 0.0 0.00 0.01 0.00 1013.4
20260503071533 0 360 0.0 0.0 0.00 0.01 0.00 1013.2
20260503054537 0 360 0.0 0.0 0.00 0.01 0.00 1013.3
20260503053024 0 360 0.0 0.0 0.00 0.01 0.00 1013.5
20260503051525 0 360 0.0 0.0 0.00 0.01 0.00 1013.5
20260503050018 0 360 0.0 0.0 0.00 0.01 0.00 1013.5
20260503044509 0 360 0.0 0.0 0.00 0.01 0.00 1013.6
20260503043006 0 360 0.0 0.0 0.00 0.01 0.00 1013.7
20260503041531 0 360 0.0 0.0 0.00 0.01 0.00 1013.7
20260503040029 0 360 0.0 0.0 0.00 0.01 0.00 1013.7
20260503034520 0 360 0.0 0.0 0.00 0.01 0.00 1013.7
20260503033018 0 360 0.0 0.0 0.00 0.01 0.01 1013.6
20260503031516 0 360 0.0 0.0 0.00 0.01 0.01 1013.7
20260503030014 0 360 0.0 0.0 0.00 0.01 0.01 1013.7
20260503024539 0 360 0.0 0.0 0.00 0.01 0.01 1013.7
20260503023036 0 360 0.0 0.0 0.00 0.01 0.01 1013.9